Location: Newark
(7.0858°N, 171.3717°E)
Time: 06:12:54
(UTC+00:00)

Courier 1B Rocket - Pass Details

Date: 06 December 2020
Orbit: 920 x 1202 km, 28.2° (Epoch: 20 January)

Event Time Altitude Azimuth Distance (km) Brightness Sun altitude
Rises 22:20:01 0° 295° (WNW) 4,071 7.9 47.2°
Reaches altitude 10° 22:22:55 10° 293° (WNW) 3,089 7.3 47.7°
Maximum altitude 22:30:34 71° 210° (SSW) 1,189 6.5 49.0°
Drops below altitude 10° 22:37:45 10° 127° (SE) 2,910 8.4 50.2°
Sets 22:40:25 0° 125° (SE) 3,823 8.7 50.6°
